EW7526 Weather Reports


Display with metric or nautical units.
time (UTC)temp
F
wind
direction
speed
MPH
gust
MPH
rain 1hr
in
rain 24hr
in
rain mn
in
humidity
%
barometer
mb
20181218214640 67 230 2.0 3.0 0.00 0.00 0.00 28 1021.3
20181218214140 67 223 3.0 6.0 0.00 0.00 0.00 27 1021.3
20181218213640 67 229 5.0 7.0 0.00 0.00 0.00 28 1021.3
20181218213140 67 207 5.0 6.0 0.00 0.00 0.00 27 1021.4
20181218212641 67 197 3.0 6.0 0.00 0.00 0.00 27 1021.4
20181218212140 67 208 2.0 5.0 0.00 0.00 0.00 27 1021.5
20181218211640 68 199 3.0 5.0 0.00 0.00 0.00 27 1021.5
20181218211141 68 174 3.0 3.0 0.00 0.00 0.00 28 1021.5
20181218210641 68 227 1.0 3.0 0.00 0.00 0.00 28 1021.6
20181218210141 68 225 3.0 6.0 0.00 0.00 0.00 28 1021.7
20181218205640 68 252 2.0 2.0 0.00 0.00 0.00 28 1021.7
20181218205141 68 227 1.0 3.0 0.00 0.00 0.00 28 1021.7
20181218204641 68 224 3.0 3.0 0.00 0.00 0.00 28 1021.8
20181218204141 68 242 1.0 3.0 0.00 0.00 0.00 28 1021.8
20181218203641 67 216 1.0 3.0 0.00 0.00 0.00 28 1022.0
20181218203141 67 231 1.0 3.0 0.00 0.00 0.00 29 1022.0
20181218202640 67 294 1.0 3.0 0.00 0.00 0.00 29 1022.0
20181218202140 67 289 1.0 2.0 0.00 0.00 0.00 29 1022.0
20181218201640 66 268 0.0 2.0 0.00 0.00 0.00 29 1022.1
20181218201141 67 280 1.0 3.0 0.00 0.00 0.00 30 1022.1
20181218200640 66 221 1.0 2.0 0.00 0.00 0.00 30 1022.3
20181218200141 66 330 2.0 3.0 0.00 0.00 0.00 29 1022.3
20181218195643 66 341 2.0 3.0 0.00 0.00 0.00 30 1022.5
20181218195143 66 155 1.0 2.0 0.00 0.00 0.00 30 1022.5
20181218194645 66 356 1.0 2.0 0.00 0.00 0.00 31 1022.6
20181218194144 65 240 2.0 3.0 0.00 0.00 0.00 31 1022.7
20181218193642 65 343 2.0 3.0 0.00 0.00 0.00 31 1022.8
20181218193141 65 318 1.0 2.0 0.00 0.00 0.00 31 1022.8
20181218192641 65 274 0.0 3.0 0.00 0.00 0.00 32 1022.9
20181218192141 65 344 1.0 5.0 0.00 0.00 0.00 31 1022.8
20181218191643 65 334 2.0 7.0 0.00 0.00 0.00 31 1023.0